ヒル彗星

211P/Hill (2022)

English version
Home page
Updated on April 15, 2023

---------------------------------------------------------------------

・ プロフィール

・ 写真集

・ 軌道要素

Epoch 2023 Feb. 25.0 TT = JDT 2460000.5
T 2022 Oct. 4.63880 TT                                  Rudenko
q   2.3275749            (2000.0)            P               Q
n   0.14749081     Peri.    4.29109     -0.51773027     -0.80541211
a   3.5478023      Node   117.13027     +0.77498030     -0.58438120
e   0.3439389      Incl.   18.91921     +0.36243746     +0.09904521
P   6.68
>From 810 observations 2008 Dec. 4-2023 Feb. 26, mean residual 0".9.

・ 光度変化

        m1 = 8.8 + 5 logΔ + 20.0 log r

---------------------------------------------------------------------

軌道要素はM.P.E.C. 2023-D72に掲載されたものです。
光度グラフはComet for Windowsで作成したものです。

---------------------------------------------------------------------

Copyright(C) Seiichi Yoshida (comet@aerith.net). All rights reserved.